Showing default

EXPRESS AM-44, 33595

Orbit data source: Space-Track

EXPRESS AM-44, 33595 is a payload satellite owned by KosSvyaz (CIS) in GEO that was launched on Wed, 11 Feb 2009 UTC via a PROTON-M/BRIZ-M launch vehicle from the Tyuratam Missile And Space Complex (TTMTR). Payload-class satellites include a variety of spacecraft equipped with specific instruments for various scientific and technological missions. These include communications satellites like Starlink; space stations such as the ISS; scientific satellites like the Hubble; Earth observation satellites from companies like Planet Labs, Umbra, and HawkEye 360; GPS; miniature CubeSats for education and research; and military/defense satellites.

Not visible in the next 10 days
Identifier
33595, 2009-007A
Orbit
GEO
Country
Flag of CISCIS
Related business
Manufacturer
Resehetnev ISS
Mission
Operational Commercial Communications
Bus & Motor
EKSPRESS-2000, AOCS
Mass
2,532 kg wet, ~1,500 kg dry
Launch date (UTC)
2009-02-11 (17 years ago)
Launch vehicle
PROTON-M/BRIZ-M
Launch site
Tyuratam Missile And Space Complex (TTMTR)
Object type
Payload
Rocket body
Debris
Shape & HBR
Cyl + 2 Pan, 13.5 m
Radar Cross Section
24.423 m², Large (>1 m²)

Expand to show TLE details & history
Last TLE update: 8 hours ago

TLE from 8 hours ago
0 EXPRESS AM-44
1 33595U 09007A   26194.84401469 -.00000098  00000-0  00000+0 0  9996
2 33595   3.5285  78.0668 0003672  28.5215 117.9478  1.00271060 52557
Epoch: 2026-07-13T20:15Z
TLE epoch observation values (Epoch: 2026-07-13T20:15:22.869Z)
Latitude
1.94738°
Longitude
-10.92635°
Altitude
35,793.364 km
Speed
3.074 km/s
True Right ascension
14h 58m 33s
True Declination
1° 56' 43"
Sunlit
Object was in daylight at epoch
Visualization orbit readout
Latitude
Unknown
Longitude
Unknown
Altitude
Unknown
Speed
Unknown
Apparent Right ascension
Unknown
Apparent Declination
Unknown
Sunlit
N/A
Visualization observer readout
Local Sidereal Time
16:33:00
Azimuth
Unknown
Elevation
Unknown
Doppler factor
Unknown
Orbital elements
Apogee altitude
35,803.346 km
Perigee altitude
35,772.379 km
Semi-major axis
42,166 km
Eccentricity
0.00037
Inclination
3.5285°
RAAN
78.0668°
Arg. of periapsis
28.5215°
True anomaly
117.98496°
Mean anomaly
117.9478°
Eccentric anomaly
117.96638°
Mean motion
0.25067 °/min
Orbital period
1,436.16 mins
BSTAR
0
Loading maneuver chart data...
Computing Atmospheric mass density...
Loading historical data...
Loading historical data...
Loading historical data...
Loading historical data...
Loading historical data...
Loading historical data...
Loading historical data...
Other satellites on launch #7 in the year 2009 (2009-02-11 UTC)

Documentation

Showing up to 5 results
|